www.pogodaiklimat.ru

Погода и климат >> Архив погоды >> Венгрия >> Сегед


ПОГОДА в Сегеде

  • Прогноз погоды в Сегеде
  • Монитор погоды в Сегеде

АРХИВ ПОГОДЫ в Сегеде

Время (UTC), дата Ветер
(напр.,м/с)
 
Видим.   Явления Облачность Т
(С)
Тd
(С)
f
(%)
Тe
(С)
Тes
(С)
Комфортность P
(гПа)
Po
(гПа)
Тmin
(С)
Tmax
(С)
R
(мм)
R24
(мм)
S
(см)
04 17.08 З 2 н/о н/о +11.4 +10.9 97 +10 +10 1017.2 1007.2
05 17.08 З 2 н/о н/о +14.2 +13.7 97 +14 +14 1017.4 1007.5
06 17.08 СЗ 2 н/о н/о +19.0 +14.7 76 +21 +21 комфорт 1017.6 1007.8 +11.4
07 17.08 С 2 н/о н/о +20.7 +14.6 68 +24 +24 комфорт 1017.7 1008.0
08 17.08 СЗ 3 н/о н/о +23.4 +14.7 58 +27 +27 душно 1017.7 1008.1
09 17.08 З 3 н/о н/о +25.6 +13.8 48 +28 +28 жарко 1017.6 1008.0
10 17.08 СЗ 3 н/о н/о +26.1 +12.6 43 +28 +28 жарко 1017.4 1007.8
11 17.08 З 4 н/о н/о +27.1 +11.6 38 +28 +28 жарко 1017.0 1007.5
12 17.08 СЗ 3
{9}
н/о н/о +28.4 +11.0 34 +29 +29 жарко 1016.3 1006.8
13 17.08 СЗ 3 н/о н/о +28.6 +10.8 33 +29 +29 жарко 1016.1 1006.6
14 17.08 З 3 н/о н/о +27.4 +10.2 34 +28 +28 жарко 1015.8 1006.3
15 17.08 С 3
{7}
н/о н/о +27.8 +10.9 35 +29 +29 жарко 1015.7 1006.2
16 17.08 СЗ 3 н/о н/о +26.8 +10.9 37 +28 +28 жарко 1015.7 1006.2
17 17.08 СЗ 3 н/о н/о +25.6 +11.0 40 +27 +27 жарко 1015.9 1006.3
18 17.08 СЗ 2 н/о н/о +21.1 +11.4 54 +23 +23 комфорт 1016.0 1006.3 +28.9
19 17.08 штиль 0 н/о н/о +17.4 +12.1 71 +17 +17 1016.4 1006.6
20 17.08 Ю 1 н/о н/о +16.3 +12.8 80 +17 +17 1016.3 1006.4
21 17.08 Ю 1 н/о н/о +14.6 +12.1 85 +15 +15 1016.5 1006.6
22 17.08 штиль 0 н/о н/о +13.7 +11.6 87 +13 +13 1016.8 1006.8
23 17.08 Ю 1 н/о н/о +13.2 +11.6 90 +13 +13 1016.6 1006.6
00 18.08 Ю 2 н/о н/о +13.7 +12.4 92 +13 +13 1016.7 1006.7
01 18.08 Ю 2 н/о н/о +13.2 +12.3 94 +12 +12 1016.6 1006.6
02 18.08 Ю 1 н/о н/о +13.3 +12.4 94 +13 +13 1016.3 1006.3
03 18.08 Ю 1 н/о н/о +12.8 +11.9 94 +13 +13 1016.4 1006.4
04 18.08 Ю 1 н/о н/о +12.3 +11.7 96 +12 +12 1016.6 1006.6
05 18.08 ЮВ 1 н/о н/о +14.2 +12.6 90 +14 +14 1016.9 1007.0
06 18.08 ЮВ 2 н/о н/о +19.6 +13.8 69 +22 +22 комфорт 1016.9 1007.1 +12.0
07 18.08 Ю 3 н/о н/о +22.0 +13.4 58 +25 +25 комфорт 1016.8 1007.1
08 18.08 Ю 3 н/о н/о +25.3 +12.5 45 +27 +27 жарко 1016.8 1007.2
09 18.08 Ю 3 н/о н/о +27.5 +11.5 37 +28 +28 жарко 1016.5 1007.0
10 18.08 Ю 4 н/о н/о +28.2 +10.4 33 +29 +29 жарко 1016.3 1006.8
11 18.08 Ю 3 н/о н/о +29.4 +9.5 29 +29 +29 жарко 1016.2 1006.8
12 18.08 Ю 3
{7}
н/о н/о +30.3 +10.8 30 +30 +30 жарко 1015.8 1006.4
13 18.08 Ю 4 н/о н/о +30.4 +10.9 30 +31 +31 жарко 1015.4 1006.0
14 18.08 Ю 4 н/о н/о +30.8 +10.7 29 +31 +31 жарко 1015.3 1005.9
15 18.08 Ю 4
{7}
н/о н/о +30.9 +10.3 28 +31 +31 жарко 1015.0 1005.6
16 18.08 Ю 3 н/о н/о +30.6 +10.6 29 +31 +31 жарко 1014.9 1005.5
17 18.08 Ю 3 н/о н/о +29.4 +11.0 32 +30 +30 жарко 1014.9 1005.5
18 18.08 Ю 3 н/о н/о +24.8 +12.4 46 +27 +27 жарко 1015.2 1005.6 +31.8
19 18.08 Ю 3 н/о н/о +22.9 +12.5 52 +26 +26 жарко 1015.3 1005.7
20 18.08 ЮВ 2 н/о н/о +21.3 +12.7 58 +24 +24 комфорт 1015.6 1005.9
21 18.08 Ю 1 н/о н/о +18.2 +12.0 67 +20 +20 1015.7 1005.9
22 18.08 Ю 2 н/о н/о +16.5 +12.3 76 +17 +17 1015.7 1005.9
23 18.08 штиль 0 н/о н/о +15.2 +12.0 81 +15 +15 1016.1 1006.2
00 19.08 ЮВ 1 н/о н/о +14.7 +12.2 85 +15 +15 1016.1 1006.2
01 19.08 ЮВ 2 н/о н/о +14.4 +12.4 88 +14 +14 1016.1 1006.2
02 19.08 ЮВ 2 н/о н/о +14.9 +12.0 83 +15 +15 1016.2 1006.3
03 19.08 ЮВ 2 н/о н/о +14.2 +12.1 87 +14 +14 1016.5 1006.6
04 19.08 ЮВ 3 н/о н/о +15.4 +12.3 82 +15 +15 1016.7 1006.8
05 19.08 ЮВ 2 н/о н/о +17.1 +12.6 75 +17 +17 1017.0 1007.2
06 19.08 ЮВ 2 н/о н/о +21.0 +13.4 62 +24 +24 комфорт 1017.2 1007.5 +13.7
07 19.08 ЮВ 2 н/о н/о +23.6 +14.0 55 +26 +26 жарко 1017.1 1007.5
08 19.08 ЮВ 3 н/о н/о +26.6 +14.4 47 +29 +29 жарко 1017.0 1007.5
09 19.08 ЮВ 3 н/о н/о +30.9 +13.2 34 +32 +32 жарко 1016.8 1007.4
10 19.08 ЮВ 3 н/о н/о +32.0 +12.8 31 +33 +33 жарко 1016.9 1007.5
11 19.08 Ю 3 н/о н/о +32.9 +12.0 28 +33 +33 жарко 1016.6 1007.3
12 19.08 ЮЗ 4
{7}
н/о н/о +34.7 +9.9 22 +34 +34 очень
жарко
1016.4 1007.1
13 19.08 ЮЗ 3 н/о н/о +34.8 +10.0 22 +34 +34 очень
жарко
1016.3 1007.0
14 19.08 ЮЗ 1 н/о н/о +35.1 +9.5 21 +34 +34 очень
жарко
1016.3 1007.0
15 19.08 Ю 2 н/о н/о +34.2 +9.5 22 +33 +33 жарко 1016.0 1006.7
16 19.08 ЮЗ 1 н/о н/о +34.6 +9.8 22 +34 +34 очень
жарко
1015.9 1006.6
17 19.08 ЮВ 1 н/о н/о +32.9 +10.9 26 +33 +33 жарко 1015.9 1006.6
18 19.08 ЮВ 2 н/о н/о +26.2 +13.3 45 +28 +28 жарко 1016.2 1006.7 +35.4
19 19.08 ЮВ 2 н/о н/о +22.6 +14.4 60 +26 +26 жарко 1016.7 1007.0
20 19.08 ЮВ 1 н/о н/о +21.4 +14.8 66 +24 +24 комфорт 1016.8 1007.1
21 19.08 штиль 0 н/о н/о +18.5 +13.8 74 +19 +19 1017.4 1007.6
22 19.08 СЗ 1 н/о н/о +18.1 +14.0 77 +19 +19 1017.6 1007.8
23 19.08 С 1 н/о н/о +17.3 +13.6 79 +18 +18 1017.7 1007.9
00 20.08 С 2 н/о н/о +17.1 +14.0 82 +17 +17 1017.6 1007.8
01 20.08 штиль 0 н/о н/о +16.3 +13.6 84 +16 +16 1017.6 1007.7
02 20.08 ЮВ 1 н/о н/о +16.2 +14.0 87 +17 +17 1017.9 1008.0
03 20.08 ЮВ 2 н/о н/о +16.1 +14.6 91 +16 +16 1018.2 1008.3
04 20.08 штиль 0 н/о н/о +15.6 +14.0 90 +15 +15 1018.5 1008.6
05 20.08 Ю 1 н/о н/о +18.2 +15.6 85 +20 +20 1018.7 1008.9
06 20.08 ЮВ 2 н/о н/о +23.6 +15.6 61 +27 +27 жарко 1018.7 1009.1 +15.4
07 20.08 ЮВ 2 н/о н/о +26.0 +16.0 54 +29 +29 душно 1018.8 1009.2
08 20.08 ЮВ 2 н/о н/о +29.0 +16.6 47 +32 +32 душно 1018.8 1009.3
09 20.08 ЮВ 2 н/о н/о +31.9 +15.8 38 +35 +35 очень
душно
1018.8 1009.4
10 20.08 ЮВ 2 н/о н/о +33.5 +15.5 34 +36 +36 очень
душно
1018.5 1009.2
11 20.08 В 2 н/о н/о +34.2 +14.7 31 +36 +36 душно 1018.3 1009.0
12 20.08 ЮВ 3 н/о н/о +34.9 +13.1 27 +35 +35 очень
жарко
1018.0 1008.7
13 20.08 ЮВ 2 н/о н/о +35.5 +13.1 26 +36 +36 очень
жарко
1017.8 1008.5
14 20.08 В 1 н/о н/о +35.5 +13.1 26 +36 +36 очень
жарко
1017.6 1008.3
15 20.08 Ю 3 н/о н/о +35.4 +13.6 27 +36 +36 очень
жарко
1017.4 1008.1
16 20.08 Ю 3 н/о н/о +34.8 +13.6 28 +36 +36 душно 1017.3 1008.0
17 20.08 Ю 1 н/о н/о +33.8 +13.8 30 +35 +35 очень
жарко
1017.2 1007.9
18 20.08 ЮВ 2 н/о н/о +27.7 +16.0 49 +31 +31 душно 1017.6 1008.1 +35.8
19 20.08 ЮВ 1 н/о н/о +24.4 +16.9 63 +28 +28 душно 1018.0 1008.4
20 20.08 ЮВ 2 н/о н/о +22.6 +16.4 68 +27 +27 душно 1018.3 1008.6
21 20.08 ЮВ 1 н/о н/о +20.6 +16.2 76 +25 +25 комфорт 1018.1 1008.4
22 20.08 ЮВ 1 н/о н/о +19.6 +16.1 80 +23 +23 комфорт 1018.0 1008.2
23 20.08 В 1 н/о н/о +18.8 +15.5 81 +21 +21 комфорт 1018.1 1008.3
00 21.08 Ю 1 н/о н/о +19.3 +15.6 79 +22 +22 комфорт 1018.1 1008.3
01 21.08 ЮВ 2 н/о н/о +19.0 +15.1 78 +21 +21 комфорт 1018.1 1008.3
02 21.08 ЮВ 2 н/о н/о +17.5 +14.6 83 +18 +18 1018.2 1008.4
03 21.08 ЮВ 3 н/о н/о +19.4 +15.1 76 +21 +21 комфорт 1018.3 1008.5
04 21.08 ЮВ 3 н/о н/о +19.3 +14.3 73 +21 +21 комфорт 1018.7 1008.9
05 21.08 ЮВ 2 н/о н/о +20.4 +14.7 70 +24 +24 комфорт 1019.0 1009.2
06 21.08 Ю 2 н/о н/о +24.0 +15.0 57 +27 +27 жарко 1019.5 1009.9 +16.9
07 21.08 ЮЗ 2 н/о н/о +26.7 +15.4 50 +30 +30 душно 1019.9 1010.3
08 21.08 З 2 н/о н/о +28.2 +14.4 43 +30 +30 жарко 1020.1 1010.6
09 21.08 З 2 н/о н/о +32.6 +14.2 33 +34 +34 очень
жарко
1019.9 1010.5
10 21.08 ЮЗ 2 н/о н/о +32.9 +13.0 30 +34 +34 очень
жарко
1019.8 1010.4
11 21.08 ЮЗ 2 н/о н/о +33.8 +14.8 32 +35 +35 очень
жарко
1019.5 1010.2
12 21.08 СЗ 3 н/о н/о +34.5 +15.9 33 +37 +37 очень
душно
1019.1 1009.8
13 21.08 С 3 н/о н/о +34.8 +17.1 35 +38 +38 очень
душно
1018.9 1009.6
14 21.08 С 2 н/о н/о +34.7 +16.5 34 +37 +37 очень
душно
1018.7 1009.4
15 21.08 С 3 н/о н/о +33.9 +16.3 35 +37 +37 очень
душно
1018.6 1009.3
16 21.08 С 3 н/о н/о +33.7 +17.0 37 +37 +37 очень
душно
1018.5 1009.2
17 21.08 СЗ 6 н/о н/о +29.9 +18.4 50 +35 +35 очень
душно
1018.8 1009.4
18 21.08 СЗ 5
{9}
н/о н/о +27.0 +17.5 56 +31 +31 душно 1019.4 1009.9 +35.0
19 21.08 СЗ 6 н/о н/о +25.7 +16.8 58 +29 +29 душно 1020.3 1010.7
20 21.08 СЗ 5 н/о н/о +23.6 +15.6 61 +27 +27 жарко 1021.1 1011.4
21 21.08 СЗ 4
{8}
н/о н/о +21.5 +15.1 67 +25 +25 комфорт 1021.5 1011.8
22 21.08 СЗ 5 н/о н/о +21.1 +15.2 69 +24 +24 комфорт 1021.8 1012.0
23 21.08 С 6 н/о н/о +21.7 +15.5 68 +25 +25 комфорт 1021.9 1012.2
00 22.08 С 4
{9}
н/о н/о +20.3 +14.9 71 +23 +23 комфорт 1021.9 1012.1
01 22.08 С 5 н/о н/о +19.9 +14.7 72 +22 +22 комфорт 1021.9 1012.1
02 22.08 С 6 н/о н/о +19.3 +14.8 75 +20 +20 1021.6 1011.8
03 22.08
{8}
н/о н/о +18.7 +14.2 75 1022.0 1012.2
04 22.08 С 4 н/о н/о +18.4 +14.3 77 +19 +19 1022.3 1012.5
05 22.08 С 4 н/о н/о +18.8 +14.3 75 +20 +20 1022.6 1012.8
06 22.08 С 4
{8}
н/о н/о +20.6 +14.5 68 +23 +23 комфорт 1022.8 1013.0 +18.4
07 22.08 С 4 н/о н/о +21.7 +14.6 64 +25 +25 комфорт 1023.0 1013.3
08 22.08 С 4 н/о н/о +23.4 +14.9 59 +27 +27 душно 1023.3 1013.6
09 22.08 СЗ 4
{7}
н/о н/о +25.7 +16.0 55 +29 +29 душно 1023.2 1013.6
10 22.08 С 4 н/о н/о +25.8 +15.8 54 +29 +29 душно 1023.2 1013.6
11 22.08 С 4 н/о н/о +27.6 +16.2 50 +31 +31 душно 1022.6 1013.0
12 22.08 С 4
{7}
н/о н/о +29.6 +17.4 48 +34 +34 очень
душно
1022.0 1012.5
13 22.08 С 4 н/о н/о +30.0 +17.1 46 +34 +34 очень
душно
1021.6 1012.1
14 22.08 С 4 н/о н/о +30.8 +17.8 46 +35 +35 очень
душно
1021.2 1011.8
15 22.08 С 4
{7}
н/о н/о +30.9 +17.9 46 +35 +35 очень
душно
1020.9 1011.5
16 22.08 С 5 н/о н/о +30.4 +18.2 48 +35 +35 очень
душно
1020.8 1011.4
17 22.08 С 4 н/о н/о +28.9 +18.1 52 +34 +34 очень
душно
1020.8 1011.3
18 22.08 С 2 н/о н/о +25.8 +18.5 64 +31 +31 очень
душно
1021.2 1011.6 +31.3
19 22.08 С 2 н/о н/о +24.6 +18.5 69 +29 +29 душно 1021.7 1012.1
20 22.08 С 4 н/о н/о +24.5 +17.0 63 +28 +28 душно 1022.1 1012.5
21 22.08 СВ 3 н/о н/о +23.2 +16.5 66 +28 +28 душно 1022.4 1012.7
22 22.08 С 4 н/о н/о +22.8 +16.4 67 +27 +27 душно 1022.3 1012.6
23 22.08 С 3 н/о н/о +21.7 +15.5 68 +25 +25 комфорт 1022.3 1012.6
00 23.08 н/о н/о +20.1 +16.1 78 1022.2 1012.4
01 23.08 С 2 н/о н/о +20.1 +15.7 76 +23 +23 комфорт 1022.1 1012.3
02 23.08 С 2 н/о н/о +19.3 +15.4 78 +22 +22 комфорт 1022.2 1012.4
03 23.08 С 3 н/о н/о +18.7 +15.0 79 +20 +20 1022.3 1012.5
04 23.08 С 3 н/о н/о +18.4 +14.9 80 +19 +19 1022.7 1012.8
05 23.08 С 3 н/о н/о +18.4 +15.1 81 +19 +19 1023.3 1013.4
06 23.08 С 5
{7}
н/о н/о +20.7 +15.5 72 +24 +24 комфорт 1023.7 1013.9 +18.2
07 23.08 С 5 н/о н/о +21.9 +15.7 68 +26 +26 душно 1023.6 1013.9
08 23.08 СВ 5 н/о н/о +24.5 +16.2 60 +28 +28 душно 1023.8 1014.1
09 23.08 СВ 4
{8}
н/о н/о +28.2 +16.8 50 +32 +32 душно 1023.2 1013.7
10 23.08 СВ 4 н/о н/о +29.2 +16.7 47 +33 +33 очень
душно
1022.9 1013.4
11 23.08 СВ 4 н/о н/о +31.0 +16.2 41 +34 +34 душно 1022.5 1013.1
12 23.08 СВ 3
{7}
н/о н/о +32.4 +16.7 39 +36 +36 очень
душно
1021.8 1012.4
13 23.08 С 3 н/о н/о +32.9 +16.7 38 +36 +36 очень
душно
1021.5 1012.1
14 23.08 СВ 3 н/о н/о +33.0 +15.9 36 +36 +36 очень
душно
1021.0 1011.6
15 23.08 С 3
{7}
н/о н/о +33.2 +16.1 36 +36 +36 очень
душно
1020.4 1011.0
16 23.08 С 3 н/о н/о +32.5 +15.5 36 +35 +35 душно 1020.3 1010.9
17 23.08 С 4 н/о н/о +30.5 +17.2 45 +34 +34 очень
душно
1020.2 1010.8
18 23.08 С 3 н/о н/о +27.6 +18.0 56 +32 +32 очень
душно
1020.6 1011.1 +33.5
19 23.08 С 3 н/о н/о +26.5 +17.8 59 +31 +31 душно 1021.0 1011.4
20 23.08 С 3 н/о н/о +25.6 +17.3 60 +30 +30 душно 1021.3 1011.7
21 23.08 С 3 н/о н/о +24.7 +16.9 62 +28 +28 душно 1021.0 1011.4
22 23.08 С 3 н/о н/о +24.2 +17.0 64 +28 +28 душно 1020.9 1011.3
23 23.08 С 3 н/о н/о +23.6 +16.4 64 +27 +27 жарко 1021.0 1011.3
00 24.08 С 3 н/о н/о +22.9 +16.2 66 +27 +27 душно 1020.7 1011.0
01 24.08 С 4 н/о н/о +22.5 +16.3 68 +27 +27 душно 1020.7 1011.0
02 24.08 С 2 н/о н/о +20.9 +16.5 76 +25 +25 комфорт 1020.9 1011.1

 

Местоположение метеостанции Сегед (Венгрия): широта 46.25 долгота 20.10 высота над уровнем моря 83 м.

В архиве по умолчанию представлена погода в Сегеде за последнюю неделю. Архивные данные за месяц целиком и за предыдущие месяцы, начиная с января 2011 года, Вы можете получить, выбрав интересующий диапазон дат из раскрывающегося списка и нажав кнопку "Ввод!".


*Определитесь, кто Вы:
робот инопланетянин человек

Внимание! Время в таблицах - всемирное. Для получения местного времени необходимо прибавить поправку, которая равна 1 ч.

Смотрите также архив погоды в соседних городах и на ближайших метеорологических станциях:

Погода в Паличе (Сербия) (30 км)
Погода в Сынниколау-Маре (Румыния) (45 км)
Погода в Кикинде (Сербия) (53 км)
Погода в Жимболии (Румыния) (70 км)
Погода в Кечкемете (Венгрия) (79 км)
Погода в Байе (Венгрия) (83 км)
Погода в Сомборе (Сербия) (91 км)
Погода в Бекешчабе (Венгрия) (95 км)
Погода в Араде (Румыния) (97 км)
Погода в Сольноке (Венгрия) (97 км)

Пояснения к столбцам:

Ветер - указаны скорость ветра в м/с - средняя за 10 мин, порывы в срок и между сроками (в фигурных скобках) и направление, откуда дует ветер: С - северный, СВ - северо-восточный, В - восточный, ЮВ - юго-восточный, Ю - южный, ЮЗ - юго-западный, З - западный, СЗ - северо-западный.
Видимость - горизонтальная дальность видимости в метрах или километрах. При видимости от 1 до 10 км при отсутствии осадков обычно наблюдается дымка, при ухудшении видимости до 1 км и менее - туман. В сухую погоду видимость может ухудшаться дымом, пылью или мглою.
Явления - указаны атмосферные явления, наблюдавшиеся в срок или в последний час перед сроком; фигурными скобками обозначены явления, наблюдавшиеся между сроками (за 1-3 часа до срока); квадратными скобками обозначены град или гололедные отложения с указанием их диаметра в мм.
Облачность - указаны через наклонную черту общая и нижняя облачность в баллах и высота нижней границы облаков в метрах; квадратными скобками обозначены формы облаков: Ci - перистые, Cs - перисто-слоистые, Cc - перисто-кучевые, Ac - высококучевые, As - высокослоистые, Sc - слоисто-кучевые, Ns - слоисто-дождевые, Cu - кучевые, Cb - кучево-дождевые. Подробнее классификацию облаков см. в Атласе облаков (PDF).
T - Температура воздуха - температура, измеренная на высоте 2 м над землей.
Td - Температура точки росы - температура, при понижении до которой содержащийся в воздухе водяной пар достигнет насыщения.
f - Относительная влажность воздуха - влажноcть воздуха, измеренная на высоте 2 м над землей.
Te - Эффективная температура - температура, которую ощущает одетый по сезону человек в тени. Характеристика душности погоды. При расчете учитывается влияние влажности воздуха и скорости ветра на теплоощущения человека.
Tes - Эффективная температура на солнце - температура, которую ощущает человек, с поправкой на солнечный нагрев. Характеристика знойности погоды. Зависит от высоты солнца над горизонтом, облачности и скорости ветра. Ночью, в пасмурную погоду, а также при ветре 12 м/с и более поправка равна нулю.
P - Атмосферное давление - приведенное к уровню моря атмосферное давление.
Po - Атмосферное давление - измеренное на уровне метеостанции атмосферное давление.
Tmin - Минимальная температура - минимум температуры воздуха на высоте 2 м над землей.
Tmax - Максимальная температура - максимум температуры воздуха на высоте 2 м над землей.
R - Количество осадков - Количество выпавших осадков за период времени, мм. При наведении курсора мыши на число - период времени, за который выпало указанное количество осадков.
R24 - Количество осадков - Количество выпавших осадков за 24 часа, мм.
S - Снежный покров - Высота снежного покрова, см. При наведении курсора мыши на число - состояние снежного покрова и степень покрытия местности в баллах.